Location: *
(17.3280°S, 114.7300°W)
Time: 07:23:21
(UTC+00:00)

Cosmos 1371 Rocket - Pass Details

Date: 05 August 2020
Orbit: 753 x 790 km, 74.0° (Epoch: 20 September)

Event Time Altitude Azimuth Distance (km) Brightness Sun altitude
Rises 13:33:51 0° 192° (SSW) 3,222 7.0 -7.5°
Reaches altitude 10° 13:36:14 10° 191° (S) 2,290 6.2 -6.9°
Maximum altitude 13:41:25 81° 104° (ESE) 769 4.2 -5.7°
Drops below altitude 10° 13:46:34 10° 16° (NNE) 2,271 6.9 -4.5°
Sets 13:48:55 0° 15° (NNE) 3,193 7.7 -4.0°
